FW7184 Weather Reports


Display with metric or nautical units.
time (UTC)temp
F
wind
direction
speed
MPH
gust
MPH
rain 1hr
in
rain 24hr
in
rain mn
in
humidity
%
barometer
mb
20260508023403 45 118 0.0 0.0 0.00 0.14 0.14 79 1009.9
20260508022900 45 120 0.0 0.0 0.00 0.14 0.14 79 1009.8
20260508022355 45 122 0.0 0.0 0.00 0.14 0.14 79 1009.7
20260508021853 46 121 0.0 0.0 0.00 0.14 0.14 78 1009.8
20260508021349 46 118 0.0 0.0 0.00 0.14 0.14 77 1009.6
20260508020845 46 118 0.0 0.0 0.00 0.14 0.14 76 1009.7
20260508020343 46 117 0.0 0.0 0.00 0.14 0.14 75 1009.5
20260508015840 46 118 0.0 0.0 0.00 0.14 0.14 74 1009.7
20260508015337 47 117 0.0 0.0 0.00 0.14 0.14 73 1009.6
20260508014834 47 118 0.0 0.0 0.00 0.14 0.14 72 1009.7
20260508014331 47 116 0.0 0.0 0.00 0.14 0.14 71 1009.6
20260508013832 48 117 0.0 0.0 0.00 0.14 0.14 71 1009.5
20260508013328 48 118 0.0 0.0 0.00 0.14 0.14 70 1009.5
20260508012826 48 118 0.0 0.0 0.00 0.14 0.14 69 1009.5
20260508012323 49 118 0.0 0.0 0.00 0.14 0.14 68 1009.4
20260508011821 49 117 0.0 0.0 0.00 0.14 0.14 67 1009.5
20260508011318 50 118 0.0 0.0 0.00 0.14 0.14 66 1009.6
20260508010815 50 116 0.0 0.0 0.00 0.14 0.14 64 1009.4
20260508010313 50 116 0.0 0.0 0.00 0.14 0.14 63 1009.6
20260508005809 51 116 0.0 0.0 0.00 0.14 0.14 61 1009.6
20260508005306 51 118 0.0 0.0 0.00 0.14 0.14 59 1009.3
20260508004802 52 116 0.0 0.0 0.00 0.14 0.14 59 1009.1
20260508004258 52 113 0.0 0.0 0.00 0.14 0.14 57 1009.1
20260508003755 53 116 0.0 0.0 0.00 0.14 0.14 54 1008.9
20260508003253 53 117 0.0 0.0 0.00 0.14 0.14 53 1008.9
20260508002749 54 111 0.0 0.0 0.00 0.14 0.14 51 1008.8
20260508002246 54 118 0.0 0.0 0.00 0.14 0.14 49 1008.9
20260508001742 55 116 0.0 0.0 0.00 0.14 0.14 47 1008.8
20260508001238 55 119 0.0 0.0 0.00 0.14 0.14 46 1008.8
20260508000734 56 113 0.0 0.0 0.00 0.14 0.14 45 1008.6
20260508000234 56 115 0.0 0.0 0.00 0.14 0.14 45 1008.5
20260507235728 57 119 0.0 0.0 0.00 0.14 0.14 43 1008.6
20260507235225 57 114 0.0 0.0 0.00 0.14 0.14 43 1008.8
20260507234722 57 123 0.0 1.0 0.00 0.14 0.14 42 1008.7
20260507234219 58 94 1.0 1.0 0.00 0.14 0.14 41 1008.6
20260507233715 58 71 1.0 1.0 0.00 0.14 0.14 41 1008.3
20260507233214 58 107 1.0 1.0 0.00 0.14 0.14 41 1008.7
20260507232710 59 114 1.0 1.0 0.00 0.14 0.14 40 1008.3
20260507232208 59 339 1.0 2.0 0.00 0.14 0.14 40 1008.3
20260507231704 59 54 0.0 1.0 0.00 0.14 0.14 39 1008.2
20260507231201 59 102 0.0 0.0 0.00 0.14 0.14 40 1008.2
20260507230658 59 348 2.0 3.0 0.00 0.14 0.14 39 1008.2
20260507230155 59 115 0.0 1.0 0.00 0.14 0.14 39 1008.4
20260507225654 59 100 0.0 0.0 0.00 0.14 0.14 39 1008.3
20260507225151 59 117 0.0 0.0 0.00 0.14 0.14 39 1008.2
20260507224647 59 108 0.0 1.0 0.00 0.14 0.14 39 1008.2
20260507224144 59 118 0.0 0.0 0.00 0.14 0.14 40 1008.2
20260507223640 59 37 2.0 3.0 0.00 0.14 0.14 39 1008.4
20260507223137 60 107 1.0 1.0 0.00 0.14 0.14 38 1008.1
20260507222634 60 100 0.0 1.0 0.00 0.14 0.14 36 1008.2
20260507222130 60 120 2.0 2.0 0.00 0.14 0.14 38 1008.2
20260507221626 60 86 3.0 3.0 0.00 0.14 0.14 37 1008.1
20260507221123 60 124 1.0 1.0 0.00 0.14 0.14 37 1008.3
20260507220620 60 87 1.0 1.0 0.00 0.14 0.14 39 1008.4
20260507220118 60 96 0.0 0.0 0.00 0.14 0.14 40 1008.1
20260507215614 61 110 0.0 0.0 0.00 0.14 0.14 41 1008.2
20260507215112 61 131 0.0 0.0 0.00 0.14 0.14 39 1008.0
20260507214609 60 106 0.0 0.0 0.00 0.14 0.14 40 1008.3
20260507214105 61 130 0.0 0.0 0.00 0.14 0.14 39 1008.1
20260507213601 62 21 2.0 2.0 0.00 0.14 0.14 37 1008.2
20260507213058 62 88 5.0 7.0 0.00 0.14 0.14 36 1008.1
20260507212554 62 64 1.0 2.0 0.00 0.14 0.14 37 1008.0
20260507212051 62 125 2.0 5.0 0.00 0.14 0.14 36 1007.9
20260507211548 62 126 0.0 0.0 0.00 0.14 0.14 38 1008.3
20260507211044 62 111 0.0 0.0 0.00 0.14 0.14 39 1008.0
20260507210541 62 90 1.0 1.0 0.00 0.14 0.14 38 1007.8
20260507210038 63 52 0.0 1.0 0.00 0.14 0.14 38 1007.9
20260507205535 62 51 2.0 2.0 0.00 0.14 0.14 39 1008.0
20260507205031 63 21 7.0 11.0 0.00 0.14 0.14 37 1007.8
20260507204527 63 85 2.0 3.0 0.00 0.14 0.14 37 1007.8
20260507204025 63 108 0.0 1.0 0.00 0.14 0.14 38 1008.1
20260507203523 63 132 1.0 1.0 0.00 0.14 0.14 37 1008.0
20260507203020 62 33 4.0 5.0 0.00 0.14 0.14 38 1007.9
20260507202515 62 27 1.0 2.0 0.00 0.14 0.14 37 1007.7
20260507202012 62 124 0.0 0.0 0.00 0.14 0.14 40 1007.7
20260507201508 62 206 3.0 5.0 0.00 0.14 0.14 38 1007.7
20260507201004 62 63 2.0 3.0 0.00 0.14 0.14 38 1007.8
20260507200459 62 12 1.0 3.0 0.00 0.14 0.14 39 1008.0
20260507195955 63 77 1.0 2.0 0.00 0.14 0.14 37 1008.0
20260507195453 63 108 3.0 6.0 0.00 0.14 0.14 37 1008.0
20260507194950 62 66 1.0 1.0 0.00 0.14 0.14 38 1008.1
20260507194447 62 66 0.0 1.0 0.00 0.14 0.14 39 1008.1
20260507193943 62 143 2.0 2.0 0.00 0.14 0.14 38 1008.2
20260507193440 61 119 0.0 0.0 0.00 0.14 0.14 37 1008.3
20260507192937 62 23 4.0 6.0 0.00 0.14 0.14 38 1008.1
20260507192433 63 84 1.0 2.0 0.00 0.14 0.14 37 1008.2
20260507191930 62 128 0.0 1.0 0.00 0.14 0.14 39 1008.3
20260507191426 63 68 2.0 3.0 0.00 0.14 0.14 38 1008.5
20260507190922 62 110 2.0 2.0 0.00 0.14 0.14 39 1008.4
20260507190420 62 156 1.0 2.0 0.00 0.14 0.14 38 1008.5
20260507185919 62 31 5.0 6.0 0.00 0.14 0.14 39 1008.6
20260507185416 62 42 1.0 1.0 0.00 0.14 0.14 38 1008.4
20260507184913 62 126 0.0 0.0 0.00 0.14 0.14 37 1008.5
20260507184411 62 110 0.0 0.0 0.00 0.14 0.14 38 1008.5
20260507183908 62 130 1.0 1.0 0.00 0.14 0.14 40 1008.9
20260507183405 62 69 1.0 1.0 0.00 0.14 0.14 40 1008.9
20260507182902 62 120 0.0 1.0 0.00 0.14 0.14 39 1008.8
20260507182357 62 127 0.0 0.0 0.00 0.14 0.14 39 1008.7
20260507181854 61 110 0.0 1.0 0.00 0.14 0.14 41 1008.9
20260507181350 62 131 1.0 1.0 0.00 0.14 0.14 40 1008.9
20260507180847 62 23 1.0 2.0 0.00 0.14 0.14 39 1009.1
20260507180344 62 199 2.0 2.0 0.00 0.14 0.14 40 1008.8
20260507175840 62 98 3.0 5.0 0.00 0.14 0.14 37 1009.2
20260507175337 61 119 0.0 1.0 0.00 0.14 0.14 38 1009.1
20260507174834 62 101 1.0 1.0 0.00 0.14 0.14 44 1009.3
20260507174332 61 106 0.0 0.0 0.00 0.14 0.14 42 1009.6
20260507173829 61 104 1.0 3.0 0.00 0.14 0.14 37 1009.6
20260507173326 60 76 1.0 1.0 0.00 0.14 0.14 39 1009.6
20260507172822 60 109 0.0 0.0 0.00 0.14 0.14 40 1009.6
20260507172319 60 227 3.0 5.0 0.00 0.14 0.14 42 1009.5
20260507171815 60 130 0.0 0.0 0.00 0.14 0.14 43 1009.6
20260507171312 60 158 3.0 5.0 0.00 0.14 0.14 41 1009.7
20260507170809 59 146 2.0 2.0 0.00 0.14 0.14 40 1010.0
20260507170305 59 124 0.0 0.0 0.00 0.14 0.14 41 1010.1
20260507165801 60 117 0.0 0.0 0.00 0.14 0.14 41 1010.1
20260507165258 60 128 0.0 0.0 0.00 0.14 0.14 42 1010.0
20260507164754 59 47 1.0 2.0 0.00 0.14 0.14 41 1010.2
20260507164251 59 107 2.0 2.0 0.00 0.14 0.14 41 1010.1
20260507163748 58 101 0.0 1.0 0.00 0.14 0.14 46 1010.1
20260507163246 60 36 4.0 8.0 0.00 0.14 0.14 40 1010.3
20260507162741 59 165 1.0 2.0 0.00 0.14 0.14 42 1010.5
20260507162237 59 143 1.0 1.0 0.00 0.14 0.14 43 1010.5
20260507161735 59 91 0.0 1.0 0.00 0.14 0.14 41 1010.4
20260507161231 59 53 1.0 5.0 0.00 0.14 0.14 40 1010.4
20260507160727 59 110 1.0 1.0 0.00 0.14 0.14 43 1010.4
20260507160223 57 126 0.0 0.0 0.00 0.14 0.14 39 1010.8
20260507155720 57 22 2.0 2.0 0.00 0.14 0.14 42 1010.8
20260507155216 58 33 1.0 2.0 0.00 0.14 0.14 42 1010.7
20260507154712 57 69 0.0 1.0 0.00 0.14 0.14 40 1010.8
20260507154210 57 35 0.0 1.0 0.00 0.14 0.14 45 1010.7
20260507153707 57 36 3.0 3.0 0.00 0.14 0.14 43 1011.0
20260507153203 58 110 1.0 1.0 0.00 0.14 0.14 40 1011.1
20260507152659 58 82 0.0 1.0 0.00 0.14 0.14 41 1011.0
20260507152155 57 27 2.0 3.0 0.00 0.14 0.14 40 1011.0
20260507151652 57 7 4.0 7.0 0.00 0.14 0.14 44 1011.1
20260507151148 56 71 1.0 1.0 0.00 0.14 0.14 43 1011.3
20260507150646 56 88 2.0 3.0 0.00 0.14 0.14 48 1011.2
20260507150142 56 93 1.0 1.0 0.00 0.14 0.14 44 1011.2
20260507145637 56 102 0.0 0.0 0.00 0.14 0.14 49 1011.2
20260507145135 56 53 1.0 2.0 0.00 0.14 0.14 48 1011.1
20260507144631 57 83 2.0 3.0 0.00 0.14 0.14 47 1010.9
20260507144130 55 110 2.0 5.0 0.00 0.14 0.14 46 1011.0
20260507143626 56 118 0.0 1.0 0.00 0.14 0.14 50 1011.1
20260507143123 55 12 3.0 5.0 0.00 0.14 0.14 49 1011.1
20260507142619 55 40 0.0 1.0 0.05 0.14 0.14 52 1011.5
20260507142116 55 30 0.0 1.0 0.00 0.13 0.13 54 1011.2
20260507141612 56 48 2.0 2.0 0.00 0.13 0.13 57 1011.3
20260507141109 55 291 1.0 1.0 0.00 0.13 0.13 61 1011.3
20260507140605 55 164 1.0 1.0 0.00 0.13 0.13 60 1011.2
20260507135600 54 57 0.0 1.0 0.00 0.13 0.13 67 1011.2
20260507135057 53 111 0.0 1.0 0.00 0.13 0.13 65 1011.2
20260507134553 53 32 2.0 3.0 0.00 0.13 0.13 67 1011.0
20260507134049 53 70 4.0 5.0 0.00 0.13 0.13 72 1011.3
20260507133546 53 75 0.0 0.0 0.00 0.13 0.13 75 1011.1
20260507133044 53 90 0.0 0.0 0.00 0.13 0.13 78 1011.3
20260507132540 52 35 1.0 1.0 0.00 0.13 0.13 81 1011.2
20260507132036 51 15 3.0 3.0 0.00 0.13 0.13 83 1011.1
20260507131533 51 103 0.0 0.0 0.00 0.13 0.13 84 1010.9
20260507131031 51 109 1.0 1.0 0.00 0.13 0.13 87 1011.0
20260507130527 51 118 0.0 0.0 0.00 0.13 0.13 86 1011.3
20260507130026 51 100 0.0 1.0 0.00 0.13 0.13 85 1011.1
20260507125524 51 95 1.0 1.0 0.00 0.13 0.13 85 1011.0
20260507125021 51 352 3.0 5.0 0.00 0.13 0.13 85 1011.1
20260507124517 51 105 0.0 0.0 0.00 0.13 0.13 86 1011.1
20260507124016 51 92 1.0 1.0 0.00 0.13 0.13 87 1011.0
20260507123513 50 167 1.0 1.0 0.00 0.13 0.13 89 1011.1
20260507123010 50 112 0.0 0.0 0.00 0.13 0.13 90 1011.0
20260507122504 50 65 1.0 1.0 0.00 0.13 0.13 90 1010.8
20260507122001 50 117 0.0 0.0 0.00 0.13 0.13 91 1011.1
20260507121456 49 115 0.0 0.0 0.00 0.13 0.13 91 1010.9
20260507120953 49 34 0.0 1.0 0.00 0.13 0.13 92 1011.0
20260507120449 49 96 2.0 2.0 0.00 0.13 0.13 92 1010.9
20260507115946 48 16 3.0 5.0 0.00 0.13 0.13 93 1010.9
20260507115442 48 51 2.0 2.0 0.00 0.13 0.13 94 1011.0
20260507114938 48 110 0.0 0.0 0.00 0.13 0.13 94 1010.9
20260507114434 48 106 1.0 1.0 0.00 0.13 0.13 95 1010.9
20260507113932 48 114 0.0 0.0 0.00 0.13 0.13 96 1011.1
20260507113429 48 89 0.0 0.0 0.00 0.13 0.13 96 1010.7
20260507112926 48 115 0.0 0.0 0.00 0.13 0.13 96 1010.9
20260507112424 47 112 1.0 1.0 0.00 0.13 0.13 96 1010.6
20260507111921 48 116 0.0 0.0 0.00 0.13 0.13 96 1010.9
20260507111418 48 119 0.0 0.0 0.00 0.13 0.13 96 1010.5
20260507110914 47 115 0.0 0.0 0.00 0.13 0.13 96 1010.7
20260507110410 48 120 0.0 0.0 0.00 0.13 0.13 97 1010.4
20260507105907 48 121 0.0 0.0 0.00 0.13 0.13 97 1010.5
20260507105358 48 122 0.0 1.0 0.00 0.13 0.13 97 1010.5
20260507104855 48 118 0.0 0.0 0.00 0.13 0.13 97 1010.2
20260507104351 48 120 0.0 0.0 0.00 0.13 0.13 97 1010.3
20260507103847 47 120 0.0 0.0 0.00 0.13 0.13 97 1010.3
20260507103344 47 119 0.0 0.0 0.00 0.13 0.13 97 1009.9
20260507102840 47 117 0.0 0.0 0.00 0.13 0.13 97 1009.7
20260507102337 47 117 0.0 0.0 0.00 0.13 0.13 98 1009.7
20260507101833 47 117 0.0 0.0 0.00 0.13 0.13 98 1009.7
20260507101333 47 29 1.0 2.0 0.00 0.13 0.13 98 1009.6
20260507100831 47 116 0.0 0.0 0.00 0.13 0.13 98 1009.5
20260507100329 47 121 0.0 0.0 0.00 0.13 0.13 98 1009.6
20260507095827 47 120 0.0 0.0 0.00 0.13 0.13 98 1009.5
20260507095323 47 124 0.0 0.0 0.00 0.13 0.13 99 1009.7
20260507094820 48 121 0.0 0.0 0.00 0.13 0.13 99 1009.8
20260507094317 47 111 0.0 0.0 0.00 0.13 0.13 99 1009.6
20260507093814 47 33 0.0 0.0 0.00 0.13 0.13 99 1009.4
20260507093312 47 99 1.0 1.0 0.00 0.13 0.13 99 1009.5
20260507092810 47 118 0.0 1.0 0.00 0.13 0.13 99 1009.6
20260507092307 48 110 0.0 0.0 0.00 0.13 0.13 99 1009.6
20260507091803 48 95 0.0 0.0 0.00 0.13 0.13 99 1009.3
20260507091259 48 119 0.0 0.0 0.00 0.13 0.13 99 1009.5
20260507090759 48 121 0.0 0.0 0.00 0.13 0.13 99 1009.6
20260507090256 48 94 0.0 0.0 0.00 0.13 0.13 99 1009.5
20260507085753 48 121 0.0 0.0 0.00 0.13 0.13 99 1009.4
20260507085250 48 117 0.0 0.0 0.00 0.13 0.13 99 1009.6
20260507084747 48 114 0.0 1.0 0.00 0.13 0.13 99 1009.6
20260507084243 48 87 1.0 2.0 0.00 0.13 0.13 99 1009.5
20260507083741 49 121 0.0 0.0 0.00 0.13 0.13 99 1009.5
20260507083238 49 125 0.0 0.0 0.00 0.13 0.13 99 1009.6
20260507082734 49 122 0.0 0.0 0.00 0.13 0.13 99 1009.5
20260507082229 49 117 0.0 0.0 0.00 0.13 0.13 99 1009.9
20260507081727 49 127 0.0 0.0 0.00 0.13 0.13 99 1009.4
20260507081222 49 92 0.0 0.0 0.00 0.13 0.13 99 1009.2
20260507080719 49 130 0.0 0.0 0.00 0.13 0.13 99 1010.0
20260507080215 49 122 0.0 0.0 0.00 0.13 0.13 99 1009.7
20260507075711 49 101 0.0 1.0 0.00 0.13 0.13 99 1009.6
20260507075208 50 96 0.0 0.0 0.07 0.13 0.13 99 1009.8
20260507074704 50 127 0.0 0.0 0.07 0.13 0.13 99 1009.6
20260507074202 50 123 0.0 0.0 0.00 0.12 0.12 99 1009.7
20260507073658 50 120 0.0 0.0 0.00 0.12 0.12 99 1010.0
20260507073154 50 134 0.0 0.0 0.05 0.12 0.12 99 1010.1
20260507072653 50 123 0.0 0.0 0.05 0.12 0.12 99 1009.7
20260507072150 50 125 0.0 0.0 0.07 0.11 0.11 99 1009.6
20260507071648 50 124 0.0 0.0 0.12 0.11 0.11 99 1009.7
20260507071143 50 125 0.0 0.0 0.12 0.10 0.10 99 1009.4
20260507070641 50 89 0.0 0.0 0.12 0.09 0.09 98 1009.6
20260507070137 50 110 0.0 0.0 0.12 0.08 0.08 98 1009.4
20260507065634 50 112 0.0 1.0 0.07 0.07 0.07 98 1009.6
20260507065131 50 94 0.0 0.0 0.00 0.06 0.06 98 1009.5
20260507064628 50 83 0.0 0.0 0.00 0.06 0.06 98 1009.8
20260507064127 50 116 0.0 0.0 0.07 0.06 0.06 98 1009.3
20260507063624 51 60 1.0 2.0 0.12 0.06 0.06 97 1009.1
20260507063121 51 118 0.0 0.0 0.05 0.05 0.05 97 1009.5
20260507062617 51 117 0.0 0.0 0.00 0.04 0.04 96 1009.6
20260507062115 51 120 0.0 0.0 0.07 0.04 0.04 96 1009.7
20260507061613 51 120 0.0 0.0 0.12 0.04 0.04 95 1009.1
20260507061111 52 107 0.0 1.0 0.05 0.03 0.03 94 1009.2
20260507060609 52 121 0.0 0.0 0.07 0.02 0.02 93 1009.3
20260507060105 52 128 0.0 0.0 0.05 0.01 0.01 91 1009.3
20260507055600 52 123 0.0 0.0 0.00 0.00 0.00 91 1009.3
20260507055056 53 112 1.0 1.0 0.00 0.00 0.00 90 1008.6
20260507054552 53 116 0.0 0.0 0.00 0.00 0.00 90 1008.5
20260507054050 53 83 1.0 1.0 0.00 0.00 0.00 89 1008.9
20260507053548 53 117 0.0 0.0 0.00 0.00 0.00 88 1008.9
20260507053046 53 108 0.0 1.0 0.00 0.00 0.00 88 1008.7
20260507052543 54 130 0.0 0.0 0.00 0.00 0.00 87 1008.9
20260507052040 54 116 0.0 1.0 0.00 0.00 0.00 87 1008.7
20260507051538 54 32 1.0 2.0 0.00 0.00 0.00 88 1008.5
20260507051034 54 117 1.0 1.0 0.00 0.00 0.00 88 1008.9
20260507050531 54 109 0.0 1.0 0.00 0.00 0.00 88 1009.2
20260507050027 54 121 0.0 0.0 0.00 0.00 0.00 88 1009.2
20260507045524 54 118 0.0 1.0 0.00 0.00 0.00 88 1009.0
20260507045021 54 110 1.0 1.0 0.00 0.00 0.00 88 1008.9
20260507044518 55 121 0.0 0.0 0.00 0.00 0.00 87 1009.3
20260507044015 55 114 0.0 0.0 0.00 0.00 0.00 87 1009.1
20260507043511 55 90 0.0 1.0 0.00 0.00 0.00 87 1009.1
20260507043008 55 139 0.0 0.0 0.00 0.00 0.00 87 1009.1
20260507042504 55 56 1.0 1.0 0.00 0.00 0.00 87 1009.0
20260507041959 55 121 0.0 0.0 0.00 0.00 0.00 86 1009.0
20260507041457 55 138 1.0 1.0 0.00 0.00 0.00 86 1009.1
20260507040953 55 75 0.0 0.0 0.00 0.00 0.00 87 1009.2
20260507040449 55 63 1.0 1.0 0.00 0.00 0.00 87 1009.1
20260507035945 55 91 3.0 6.0 0.00 0.15 0.15 86 1009.1
20260507035442 55 185 0.0 1.0 0.00 0.15 0.15 87 1009.1
20260507034939 55 43 0.0 2.0 0.00 0.15 0.15 87 1009.3
20260507034436 56 123 0.0 1.0 0.00 0.15 0.15 87 1009.0
20260507033934 56 82 0.0 1.0 0.00 0.15 0.15 87 1008.8
20260507033431 56 121 0.0 0.0 0.00 0.15 0.15 86 1008.7
20260507032928 56 125 0.0 0.0 0.00 0.15 0.15 86 1008.9
20260507032425 56 67 1.0 1.0 0.00 0.15 0.15 85 1008.6
20260507031921 56 122 1.0 2.0 0.00 0.15 0.15 85 1008.6
20260507031418 56 111 0.0 1.0 0.00 0.15 0.15 87 1008.7
20260507030915 56 130 1.0 1.0 0.00 0.15 0.15 87 1008.7
20260507030412 57 109 0.0 1.0 0.00 0.15 0.15 87 1008.8
20260507025909 57 115 1.0 1.0 0.00 0.15 0.15 87 1008.8
20260507025406 57 108 0.0 0.0 0.00 0.15 0.15 88 1009.1
20260507024904 57 128 0.0 0.0 0.00 0.15 0.15 88 1009.1
20260507024401 57 70 1.0 2.0 0.00 0.15 0.15 87 1009.1
20260507023857 57 156 1.0 1.0 0.00 0.15 0.15 88 1009.1